Cloud_Cover
100 100 100 99 100 100 99 68 38 6 5 4 0 0 0 0 0 0 0 4 5 5 5 5 5 5 5 5 5 5 15 5 5 59 100 100 100 100 100 100 100 100 100
100 100 82 75 96 88 45 6 4 4 0 0 0 0 0 0 0 4 5 5 18 66 6 5 5 5 5 5 42 63 5 5 5 5 76 98 100 100 100 100 97 100 98
100 78 35 21 44 5 4 0 0 0 0 0 1 3 0 1 5 5 27 99 60 5 8 5 27 68 61 77 39 5 5 4 5 68 12 20 20 39 87 100 100 100 100
85 7 6 8 4 0 0 0 0 0 0 3 0 0 4 5 6 98 43 5 5 44 68 58 95 82 43 7 5 3 0 5 5 31 100 94 30 5 5 5 5 20 75
5 5 5 0 0 0 0 0 0 0 5 5 1 5 21 48 100 100 97 13 5 9 32 99 100 100 96 19 5 2 4 5 5 9 40 12 5 5 5 5 5 5 5
5 0 0 0 0 0 0 0 5 18 5 2 8 25 5 60 100 100 84 5 5 5 5 95 100 100 100 100 100 63 6 9 21 31 24 24 5 9 5 5 21 24 86
0 0 0 0 0 2 5 5 5 5 4 24 5 15 74 5 5 38 5 5 5 5 5 4 4 24 40 58 72 44 30 90 34 10 53 16 30 24 14 30 29 47 53
1 0 0 3 5 5 17 34 5 3 50 62 32 21 31 34 46 17 3 5 0 0 0 2 0 0 1 5 4 3 17 26 57 28 5 5 7 5 6 88 28 79 100
2 5 5 10 44 38 17 5 5 5 60 15 52 100 77 6 5 5 0 0 0 0 0 0 0 5 4 5 5 5 5 5 5 5 9 6 17 39 92 84 92 82 6
18 82 87 61 11 5 5 6 45 91 10 93 85 5 4 2 0 0 1 5 5 5 5 5 5 5 5 5 28 64 59 23 5 5 5 5 5 5 5 30 90 92 22
66 42 11 7 4 7 5 11 23 93 17 5 41 8 2 0 0 1 5 5 20 13 16 5 5 5 5 94 100 100 90 38 6 30 97 87 18 20 5 5 5 12 50
61 20 5 5 16 56 27 57 11 5 6 28 10 5 0 1 4 5 5 9 40 74 26 5 5 5 40 100 100 100 100 100 99 56 77 59 9 5 5 5 5 10 13
24 5 6 49 16 36 72 99 100 63 71 5 5 5 5 5 5 5 5 7 5 51 31 48 57 56 26 89 100 100 100 100 100 100 69 10 5 19 5 49 43 67 95
14 38 39 59 78 65 52 72 100 96 6 5 5 9 39 78 80 6 55 82 28 26 30 96 100 100 81 100 100 100 100 100 95 58 44 73 10 76 73 95 99 71 99
47 57 64 30 24 73 99 100 100 15 5 25 61 84 100 100 83 98 100 100 94 91 100 26 7 5 5 88 100 100 100 100 93 100 97 90 94 99 82 94 98 100 100
51 44 19 51 35 60 98 65 13 5 5 17 45 100 100 100 100 100 100 93 97 100 74 5 5 30 58 90 93 93 96 85 75 43 33 88 90 100 100 100 100 100 99
38 33 37 65 69 84 23 5 5 6 24 97 100 95 100 100 98 90 100 100 26 23 13 84 74 70 90 98 88 93 98 69 30 67 95 100 100 100 100 99 99 100 100
12 20 60 14 5 5 5 5 5 45 86 86 55 53 85 98 97 100 100 76 12 22 79 98 99 92 92 99 95 97 94 96 99 99 100 100 100 100 100 98 100 100 100
14 35 21 5 5 5 5 5 5 51 79 70 6 19 35 38 98 57 6 64 100 94 97 97 100 99 88 100 100 95 100 92 98 100 96 100 100 100 100 100 100 100 100
49 63 5 5 5 5 5 12 56 87 73 41 88 100 62 97 80 7 78 100 98 96 98 98 92 100 100 98 88 97 92 96 89 94 100 100 100 100 100 100 100 100 100
7 5 5 5 5 5 7 32 98 56 77 100 100 96 100 100 11 94 100 100 100 100 100 100 100 94 97 90 99 97 100 90 95 100 100 100 100 100 100 100 100 100 100
5 5 5 10 19 89 59 93 64 48 98 100 100 77 97 27 93 100 100 100 100 100 100 100 100 100 98 99 94 99 95 100 95 99 100 99 93 94 94 87 86 85 81
17 7 35 74 63 31 75 88 91 98 100 100 84 99 86 100 100 100 100 100 100 100 93 100 99 97 99 97 99 100 100 100 100 100 100 96 97 97 95 98 100 98 97
11 14 63 100 99 97 80 100 86 39 95 81 99 78 93 100 98 100 100 100 100 100 97 98 98 100 92 87 92 97 99 88 94 96 97 100 100 100 100 98 98 97 90
70 68 72 81 91 90 71 64 70 68 87 98 93 84 97 99 100 100 100 100 97 95 80 84 90 82 77 80 84 83 100 100 100 100 100 100 100 99 92 83 76 86 76
68 66 5 26 63 32 95 93 79 90 91 78 78 91 99 100 100 100 95 90 90 82 87 83 85 76 71 61 68 97 92 100 95 99 72 78 85 81 73 73 66 70 68